Starlink 31607

operational
NORAD ID: 59394 Int'l Des: 2024-062 Owner: SPXS Country: US Constellation: starlink
LEOCIRCULAR

About Starlink 31607

Description loading...

Live Position

Loading 3D Globe...

Upcoming Passes

Altitude History

Altitude vs Time

uPlot chart will show altitude changes over time

Two-Line Element Set

1 59394U 24062W 25303.26500626 .00000413 00000-0 26073-4 0 9994
2 59394 53.1585 141.4107 0001243 96.4518 263.6624 15.30193596 89693
Epoch: Oct 30, 2025 • Age: 19 hours

Current Status

Altitude 479.7 km
Velocity 7.63 km/s
Sub-Earth Point 47.32°N, 130.1°E
Launch Date Apr 2, 2024
Age 1.5 years
Type internet

Technical Details

Classification Payload
Mass 730.00 kg
Dry Mass 700.00 kg
Total Mass 730.00 kg
Length 0.30 m
Diameter 4.10 m
Span 29.00 m
Shape Box + pan
Manufacturer SPXS
Bus Type Starlink V2M
Phase Status In Orbit
Owner/State SPXS/US

Large Constellations

Loading constellations...